Погода в Серове

Погода в Серове : погода сейчас, прогноз погоды и архив. Всё, что Вы хотите узнать о погоде в Серове!

Поиск расширенной информации на нашем сайте:

Другие новости

Новости СМИ2

Главная страница сайта

Новости сайта

03.07.2017

Напоминаем, что на нашем специализированном сайте Метеоцентр.Азия вы можете получить высокодетализированные автоматические прогнозы погоды по пунктам России, СНГ и мира в авиационном формате (включающие направление и скорость ветра, видимость, явления погоды, количество и форму облачности, нижнюю и верхнюю границу облачности).


Погода в Серове - сегодня

Время (UTC), дата Ветер
(°,м/с) 
Видим.   Явления Облачность Т
(°С)
Тd
(°С)
f(%) Тe
(°С)
Pmin
(гПа)
dP
(гПа)
Po
(мм)
O2
(г/м3)
Тmin Tmax R s Состояние
почвы
09 20.10.17 280 (З) 5{12}  20000 м  слаб. снег  10/10 300 м 
[Frnb|Ns]
+0.8 -1.2 86 -2  993.6  4.2  734  295           
12 20.10.17 280 (З) 5{11}  20000 м  слаб. снег  10/10 300 м 
[Frnb|Ns]
+0.2 -2.6 81 -3  996.5  2.8  736  297           
15 20.10.17 290 (З) 6{13}  10 км  {снег}  10/10 300 м 
[Frnb]
-0.1 -4.4 73 -4  997.8  1.3  737  297    +1.2     
18 20.10.17 290 (З) 6-13{13}  2000 м  слаб. снег  10/10 300 м 
[Frnb]
-0.5 -5.4 69 -4  999.5  1.7  738  298           
21 20.10.17 300 (СЗ) 6-13{16}  2000 м  слаб. снег  10/10 300 м 
[Frnb]
-1.1 -6.8 65 -5  1001.4  1.8  739  300           
00 21.10.17 290 (З) 5-10{13}  10 км  {снег}  5/5 600 м 
[Sc]
-1.3 -7.7 62 -5  1002.7  1.3  740  301           
03 21.10.17 280 (З) 3{10}  10 км    4/3 600 м верхняя 
[Sc|Ci fib]
-2.8 -8 67 -5  1003.9  1.1  741  303  -2.8    0.0    замёрзшая 
06 21.10.17 290 (З) 20000 м    8/3 600 м верхняя 
[Cu hum|Ci fib]
-0.2 -8.3 54 -3  1005  1.2  742  300  -2.9         
09 21.10.17 280 (З) н/о    н/о 
+0.9 -8.2 51 -1  1005.1  742  299           
12 21.10.17 270 (З) 20000 м    8/6 600 м верхняя 
[Cu Sc|Ci fib]
+0.3 -7.3 57 -2  1005.7  0.5  743  300           
15 21.10.17 270 (З) 3{10}  10 км    3/3 600 м 
[Sc]
-1.8 -7.6 65 -4  1006.4  0.6  743  302    +0.9       
18 21.10.17 260 (З) 10 км    ясно 
-3.5 -7.8 72 -6  1006.3  -0.2  743  304           
21 21.10.17 250 (З) 10 км    ясно 
-4.3 -8.2 74 -6  1006.3  0.1  743  305           
00 22.10.17 250 (З) 10 км    ясно 
-4.2 -7.7 77 -5  1006.3  0.1  743  305           
03 22.10.17 250 (З) 10 км    3/3 600 м 
[Sc]
-5 -7.8 81 -5  1006.7  0.3  743  306  -5        замёрзшая 
06 22.10.17 250 (З) 20000 м    3/3 600 м 
[Sc]
-0.9 -5.9 69 -3  1007  0.5  744  301           
09 22.10.17 270 (З) 20000 м    10/10 600 м 
[Sc]
+0.4 -7.2 57 -1  1007.9  744  300           
12 22.10.17 280 (З) 20000 м    8/8 600 м 
[Sc]
+0 -7.8 56 -1  1008.9  745  301           
15 22.10.17 240 (ЮЗ) 10 км    4/4 600 м 
[Sc]
-1.5 -7.5 64 -1  1010.2  1.2  746  303    +0.9       
18 22.10.17 270 (З) 10 км    3/3 600 м 
[Sc]
-1.9 -6.2 72 -3  1011.3  1.1  747  304           
21 22.10.17 тихо ()   10 км    ясно 
-4.1 -6.7 82 -4  1012  0.6  747  306           
00 23.10.17 260 (З) 10 км    6/6 600 м 
[Sc]
-4.4 -6.6 85 -6  1013  0.9  748  307           
03 23.10.17 260 (З) 10 км    8/8 600 м 
[Sc]
-3.9 -6.6 81 -5  1013.8  0.7  748  307  -5.3         
06 23.10.17 260 (З) 20000 м    10/10 600 м 
[Sc]
-2.1 -6.5 72 -3  1014.6  0.9  749  305           
09 23.10.17 250 (З) 20000 м    8/6 600 м верхняя 
[Sc|Ci fib]
+0.2 -6.9 59 -1  1014.8  0.3  749  302           
Время (UTC), дата Ветер
(°,м/с) 
Видим.   Явления Облачность Т
(°С)
Тd
(°С)
f(%) Тe
(°С)
Pmin
(гПа)
dP
(гПа)
Po
(мм)
O2
(г/м3)
Тmin Tmax R s Состояние
почвы

Для получения пояснительной информации подведите курсор к названию столбца.

ПОГОДА в Серове - архив

Всё, что Вы хотите узнать о погоде в Серове - удобно и подробно!

Выберите нужную дату (начиная с 1 января 2015* года) и нажмите кнопку "Найти".
Будут отображены архивные сводки погоды по пункту Серов, начиная с указанной даты.


Отображать данные в формате CSV (для использования в таблицах Excel)


Внимание! Наш архив погоды предназначен исключительно для личного некоммерческого использования в познавательных целях. Если Вам необходимы официальные справки о состоянии погоды (для производственных, юридических, коммерческих и т.п. целей), обращайтесь в органы Росгидромета.

*Примечание: данная дата относится к архиву по метеостанциям СССР (Россия, СНГ, Балтия).
Архив по метеостанциям Зарубежной Европы и Азии (кроме Китая) хранится 10 дней, по другим регионам земного шара (Китай, Африка, Америка, Австралия, Океания) - 1 день.

Серов - район местоположения метеостанции


Название, широта, долгота, высота метеостанции:
Серов 59.6°ш. 60.5°д. 130 м над ур. моря [Российская Федерация]

Дополнительная информация

В oтличие oт бoльшинства пoгoдных сайтoв мы публикуем пoдрoбную метеoинфoрмацию в детальнoм прoфессиoнальнoм фoрмате.

Характеристики температуры и влажнoсти вoздуха измеряются на высoте 2 м в тени вдали oт зданий и деревьев.
Скoрoсть ветра измеряется на высoте 10 м (на урoвне рoста челoвека скoрoсть ветра ниже в 1.5-2 раза). Если метеoстанция нахoдится в гoрoде или в лесу, тo скoрoсть ветра занижена на 2-4 м/с пo сравнению с oткрытым местoм. Скoрoсть ветра над акватoриями крупных рек и oзёр, а также на вершинах хoлмoв на 2-5 м/с выше, чем в oбычных услoвиях.
Атмoсфернoе давление в разных тoчках местнoсти мoжет значительнo oтличаться oт давления на метеoстанции, в зависимoсти oт услoвий рельефа (при пoдъёме на 10 м давление пoнижается примернo на 1 мм рт.ст.).